[TLELIST] Archives

 

[TLELIST] Current TLEs

July 15th 2024 PDT

HST 1 20580U 90037B 24196.93162303 .00007453 00000-0 34636-3 0 9997 2 20580 28.4673 159.1927 0002385 339.6960 20.3537 15.18084588681255 ISS (ZARYA) 1 25544U 98067A 24197.34082122 .00015218 00000-0 27494-3 0 9991 2 25544 51.6398 175.8581 0010644 67.6542 74.6197 15.49865538462914 CXO 1 25867U 99040B 24199.59791054 .00000580 00000-0 00000-0 0 9998 2 25867 41.7638 151.1853 8857581 298.2798 0.4846 0.37808948 14677 ...Continue Reading

[TLELIST] Current TLEs

July 15th 2024 PDT

HST 1 20580U 90037B 24196.93162303 .00007453 00000-0 34636-3 0 9997 2 20580 28.4673 159.1927 0002385 339.6960 20.3537 15.18084588681255 ISS (ZARYA) 1 25544U 98067A 24197.34082122 .00015218 00000-0 27494-3 0 9991 2 25544 51.6398 175.8581 0010644 67.6542 74.6197 15.49865538462914 CXO 1 25867U 99040B 24199.59791054 .00000580 00000-0 00000-0 0 9998 2 25867 41.7638 151.1853 8857581 298.2798 0.4846 0.37808948 14677 ...Continue Reading

[TLELIST] Current TLEs

July 14th 2024 PDT

HST 1 20580U 90037B 24196.20846685 .00006513 00000-0 30161-3 0 9994 2 20580 28.4673 164.0408 0002373 331.2893 28.7568 15.18073345681406 ISS (ZARYA) 1 25544U 98067A 24196.43688157 .00014208 00000-0 25755-3 0 9996 2 25544 51.6409 180.3357 0010646 64.0986 71.3384 15.49834145462770 CXO 1 25867U 99040B 24196.95371964 .00000503 00000-0 00000-0 0 9994 2 25867 41.7356 151.3405 8861255 298.1871 0.4425 0.37811792 14677 ...Continue Reading

[TLELIST] Current TLEs

July 14th 2024 PDT

HST 1 20580U 90037B 24196.20846685 .00006513 00000-0 30161-3 0 9994 2 20580 28.4673 164.0408 0002373 331.2893 28.7568 15.18073345681406 ISS (ZARYA) 1 25544U 98067A 24196.43688157 .00014208 00000-0 25755-3 0 9996 2 25544 51.6409 180.3357 0010646 64.0986 71.3384 15.49834145462770 CXO 1 25867U 99040B 24196.95371964 .00000503 00000-0 00000-0 0 9994 2 25867 41.7356 151.3405 8861255 298.1871 0.4425 0.37811792 14677 ...Continue Reading

[TLELIST] Current TLEs

July 13th 2024 PDT

HST 1 20580U 90037B 24194.95936794 .00005683 00000-0 26213-3 0 9995 2 20580 28.4673 172.4142 0002341 316.8459 43.1950 15.18057633680953 ISS (ZARYA) 1 25544U 98067A 24195.40811267 .00014756 00000-0 26745-3 0 9990 2 25544 51.6397 185.4342 0010593 60.9221 90.8533 15.49803301462619 CXO 1 25867U 99040B 24196.95371964 .00000503 00000-0 00000-0 0 9994 2 25867 41.7356 151.3405 8861255 298.1871 0.4425 0.37811792 14677 ...Continue Reading

[TLELIST] Current TLEs

July 12th 2024 PDT

HST 1 20580U 90037B 24193.38154185 .00004547 00000-0 20796-3 0 9995 2 20580 28.4672 182.9908 0002330 298.4510 61.5847 15.18039944680975 ISS (ZARYA) 1 25544U 98067A 24194.15579454 .00012524 00000-0 22863-3 0 9998 2 25544 51.6373 191.6408 0010294 56.8067 303.3908 15.49763279462421 CXO 1 25867U 99040B 24194.30891240 .00000444 00000-0 00000+0 0 9998 2 25867 41.7015 151.5109 8866390 298.0792 0.3615 0.37811030 25811 ...Continue Reading

[TLELIST] Current TLEs

July 12th 2024 PDT

HST 1 20580U 90037B 24193.38154185 .00004547 00000-0 20796-3 0 9995 2 20580 28.4672 182.9908 0002330 298.4510 61.5847 15.18039944680975 ISS (ZARYA) 1 25544U 98067A 24194.15579454 .00012524 00000-0 22863-3 0 9998 2 25544 51.6373 191.6408 0010294 56.8067 303.3908 15.49763279462421 CXO 1 25867U 99040B 24194.30891240 .00000444 00000-0 00000+0 0 9998 2 25867 41.7015 151.5109 8866390 298.0792 0.3615 0.37811030 25811 ...Continue Reading

[TLELIST] Current TLEs

July 11th 2024 PDT

HST 1 20580U 90037B 24192.65836597 .00004524 00000-0 20690-3 0 9996 2 20580 28.4672 187.8384 0002323 289.4460 70.5882 15.18033398680609 ISS (ZARYA) 1 25544U 98067A 24193.40972855 .00011950 00000-0 21867-3 0 9992 2 25544 51.6391 195.3299 0010462 53.7401 101.3227 15.49744472462306 CXO 1 25867U 99040B 24194.30891240 .00000444 00000-0 00000+0 0 9998 2 25867 41.7015 151.5109 8866390 298.0792 0.3615 0.37811030 25811 ...Continue Reading

[TLELIST] Current TLEs

July 11th 2024 PDT

HST 1 20580U 90037B 24192.65836597 .00004524 00000-0 20690-3 0 9996 2 20580 28.4672 187.8384 0002323 289.4460 70.5882 15.18033398680609 ISS (ZARYA) 1 25544U 98067A 24193.40972855 .00011950 00000-0 21867-3 0 9992 2 25544 51.6391 195.3299 0010462 53.7401 101.3227 15.49744472462306 CXO 1 25867U 99040B 24194.30891240 .00000444 00000-0 00000+0 0 9998 2 25867 41.7015 151.5109 8866390 298.0792 0.3615 0.37811030 25811 ...Continue Reading

[TLELIST] Current TLEs

July 10th 2024 PDT

HST 1 20580U 90037B 24192.19816151 .00004573 00000-0 20928-3 0 9997 2 20580 28.4671 190.9234 0002303 283.4124 76.6212 15.18029413680793 ISS (ZARYA) 1 25544U 98067A 24192.37523927 .00011689 00000-0 21427-3 0 9990 2 25544 51.6386 200.4527 0010372 50.3240 89.4737 15.49717863462144 CXO 1 25867U 99040B 24194.30891240 .00000444 00000-0 00000+0 0 9998 2 25867 41.7015 151.5109 8866390 298.0792 0.3615 0.37811030 25811 ...Continue Reading
  • This mailing list is a public mailing list - anyone may join or leave, at any time.
  • This mailing list is announce-only.

International Space Station (ISS) / Hubble Space Telescope (HST) / Chandra X-Ray Observatory Orbital Data via EMAIL

Privacy Policy:

Private list